Location: Newark
(43.0117°N, 7.5572°W)
Time: 03:38:39
(UTC+00:00)

N. Korean satellite - Visible Passes

Search period start: 29 September 2020 00:00
Search period end: 09 October 2020 00:00
Orbit: 455 x 503 km, 97.2° (Epoch: 28 September)

Date Brightness Start Highest point End Pass type
(mag) Time Alt. Az. Time Alt. Az. Time Alt. Az.
29 Sep 9.8 05:11:52 10° NE 05:14:16 17° E 05:16:37 10° SE visible
01 Oct 7.4 05:52:11 10° NNE 05:55:43 55° E 05:59:10 10° S visible
02 Oct 9.1 05:26:33 10° NE 05:29:34 25° E 05:32:31 10° SSE visible
03 Oct 10.0 05:01:46 10° ENE 05:03:19 12° E 05:04:51 10° ESE visible
05 Oct 8.2 05:41:26 10° NNE 05:44:47 38° E 05:48:04 10° SSE visible
06 Oct 9.6 05:16:01 10° NE 05:18:34 19° E 05:21:05 10° SE visible
08 Oct 7.1 05:56:24 10° NNE 05:59:55 63° E 06:03:21 10° S visible
